GW1125 Weather Reports


time (UTC)temp
C
wind
direction
speed
KPH
gust
KPH
rain 1hr
cm
rain 24hr
cm
rain mn
cm
humidity
%
barometer
mb
20260905213026 18 106 0.0 0.0 0.00 0.03 0.00 66 1016.2
20260905212022 18 102 0.0 0.0 0.00 0.03 0.00 71 1016.2
20260905211000 17 105 0.0 0.0 0.00 0.03 0.00 76 1016.5
20260905205924 16 108 0.0 0.0 0.00 0.03 0.00 79 1016.6
20260905204910 15 104 0.0 0.0 0.00 0.03 0.00 81 1016.6
20260905203843 15 104 0.0 0.0 0.00 0.03 0.00 84 1016.7
20260905202839 15 104 0.0 0.0 0.00 0.03 0.00 85 1016.6
20260905201836 14 104 0.0 0.0 0.00 0.03 0.00 86 1016.6
20260905200832 14 104 0.0 0.0 0.00 0.03 0.00 87 1016.8
20260905195828 14 104 0.0 0.0 0.00 0.03 0.00 87 1016.8
20260905194755 14 104 0.0 0.0 0.00 0.03 0.00 88 1016.8
20260905193753 14 104 0.0 0.0 0.00 0.03 0.00 87 1016.7
20260905192753 14 104 0.0 0.0 0.00 0.03 0.00 85 1016.8
20260905191743 15 104 0.0 0.0 0.00 0.03 0.00 83 1016.9
20260905190731 15 104 0.0 0.0 0.00 0.03 0.00 83 1017.1
20260905185729 15 104 0.0 0.0 0.00 0.03 0.00 83 1017.1
20260905184723 15 117 0.0 0.0 0.00 0.03 0.00 81 1017.1
20260905183703 15 116 0.0 0.0 0.00 0.03 0.00 81 1017.2
20260905182651 15 120 0.0 0.0 0.00 0.03 0.00 81 1017.2
20260905181642 15 102 0.0 0.0 0.00 0.03 0.00 82 1017.2
20260905180622 14 123 0.0 0.0 0.00 0.03 0.00 82 1017.3
20260905175543 14 112 0.0 0.0 0.00 0.03 0.00 82 1017.3
20260905174521 14 105 0.0 0.0 0.00 0.03 0.00 82 1017.4
20260905173519 14 104 0.0 0.0 0.00 0.03 0.00 82 1017.1
20260905172449 14 102 0.0 0.0 0.00 0.03 0.00 83 1017.2
20260905171446 13 102 0.0 0.0 0.00 0.03 0.00 85 1017.1
20260905170431 13 102 0.0 0.0 0.00 0.03 0.00 87 1016.9
20260905165413 13 102 0.0 0.0 0.00 0.03 0.00 89 1017.0
20260905164353 12 102 0.0 0.0 0.00 0.03 0.00 89 1016.8
20260905163352 12 101 0.0 0.0 0.00 0.03 0.00 90 1017.0
20260905162340 12 101 0.0 0.0 0.00 0.03 0.00 89 1016.8
20260905161334 13 101 0.0 0.0 0.00 0.03 0.00 89 1016.8
20260905160321 13 102 0.0 0.0 0.00 0.03 0.00 90 1016.8
20260905155314 12 102 0.0 0.0 0.00 0.03 0.00 92 1016.9
20260905154303 11 101 0.0 0.0 0.00 0.03 0.00 97 1016.7
20260905153256 11 101 0.0 0.0 0.00 0.03 0.00 99 1016.7
20260905152240 11 101 0.0 0.0 0.00 0.03 0.00 99 1016.8
20260905151223 11 101 0.0 0.0 0.00 0.03 0.00 99 1016.7
20260905150159 11 101 0.0 0.0 0.00 0.03 0.00 99 1016.7
20260905145156 10 101 0.0 0.0 0.00 0.03 0.00 99 1016.5
20260905144153 10 101 0.0 0.0 0.00 0.03 0.00 99 1016.5
20260905143134 10 101 0.0 0.0 0.00 0.03 0.00 99 1016.7
20260905142101 10 101 0.0 0.0 0.00 0.05 0.00 99 1016.4
20260905141054 9 101 0.0 0.0 0.00 0.05 0.00 99 1016.2
20260905140033 9 101 0.0 0.0 0.00 0.08 0.00 99 1016.2
20260905135005 9 101 0.0 0.0 0.00 0.08 0.00 99 1016.2
20260905133933 9 101 0.0 0.0 0.00 0.08 0.00 99 1016.3
20260905132901 9 100 0.0 0.0 0.00 0.08 0.00 99 1016.1
20260905131858 9 101 0.0 0.0 0.00 0.08 0.00 99 1016.2
20260905130837 9 101 0.0 0.0 0.00 0.08 0.00 99 1016.1
20260905125831 9 102 0.0 0.0 0.00 0.08 0.00 99 1016.2
20260905124824 9 103 0.0 0.0 0.00 0.08 0.00 99 1015.8
20260905123754 9 104 0.0 0.0 0.00 0.08 0.00 99 1016.0
20260905122744 9 104 0.0 0.0 0.00 0.08 0.00 99 1016.0
20260905121728 9 104 0.0 0.0 0.00 0.08 0.00 99 1016.0
20260905120704 9 104 0.0 0.0 0.00 0.08 0.00 99 1015.8
20260905115641 9 104 0.0 0.0 0.00 0.08 0.00 99 1016.0
20260905114628 9 104 0.0 0.0 0.00 0.10 0.00 99 1016.1
20260905113614 9 104 0.0 0.0 0.00 0.10 0.00 99 1016.0
20260905112608 9 104 0.0 0.0 0.00 0.10 0.00 99 1015.9
20260905111527 9 104 0.0 0.0 0.00 0.10 0.00 99 1015.7
20260905110518 9 103 0.0 0.0 0.00 0.10 0.00 99 1015.6
20260905105516 9 103 0.0 0.0 0.00 0.10 0.00 99 1015.6
20260905104502 9 103 0.0 0.0 0.00 0.10 0.00 99 1015.4
20260905103500 9 106 0.0 0.0 0.00 0.10 0.00 99 1015.6
20260905102434 9 106 0.0 0.0 0.00 0.10 0.00 99 1015.5
20260905101412 9 106 0.0 0.0 0.00 0.10 0.00 99 1015.3
20260905100402 9 106 0.0 0.0 0.00 0.10 0.00 99 1015.3
20260905095339 9 106 0.0 0.0 0.00 0.10 0.00 99 1015.4
20260905094329 9 106 0.0 0.0 0.00 0.10 0.00 99 1015.6
20260905093312 10 106 0.0 0.0 0.00 0.10 0.00 99 1015.5
20260905092306 9 106 0.0 0.0 0.00 0.10 0.00 99 1015.5
20260905091253 9 106 0.0 0.0 0.00 0.10 0.00 99 1015.4
20260905090231 9 106 0.0 0.0 0.00 0.10 0.00 99 1015.5
20260905085225 9 106 0.0 0.0 0.00 0.10 0.00 99 1015.4
20260905084205 9 106 0.0 0.0 0.00 0.10 0.00 99 1015.3
20260905083158 10 106 0.0 0.0 0.00 0.10 0.00 99 1015.3
20260905082149 10 106 0.0 0.0 0.00 0.10 0.00 99 1015.2
20260905081125 10 106 0.0 0.0 0.00 0.10 0.00 99 1015.2
20260905080120 10 104 0.0 0.0 0.00 0.10 0.00 99 1015.1
20260905075103 10 104 0.0 0.0 0.00 0.10 0.10 98 1015.3
20260905074044 10 104 0.0 0.0 0.00 0.10 0.10 98 1015.2
20260905073014 10 104 0.0 0.0 0.00 0.10 0.10 98 1015.2
20260905071945 10 104 0.0 0.0 0.00 0.10 0.10 98 1014.9
20260905070939 10 104 0.0 0.0 0.00 0.10 0.10 98 1014.9
20260905065915 11 104 0.0 0.0 0.00 0.10 0.10 97 1015.0
20260905064843 11 104 0.0 0.0 0.00 0.13 0.10 97 1014.8
20260905063809 11 104 0.0 0.0 0.00 0.15 0.10 97 1014.8
20260905062752 11 104 0.0 0.0 0.00 0.18 0.10 97 1014.6
20260905061720 11 104 0.0 0.0 0.00 0.18 0.10 96 1014.6
20260905060717 11 104 0.0 0.0 0.00 0.20 0.10 96 1014.5
20260905055710 11 104 0.0 0.0 0.00 0.20 0.10 96 1014.5
20260905054659 12 104 0.0 0.0 0.00 0.20 0.10 96 1014.3
20260905053648 12 104 0.0 0.0 0.00 0.20 0.10 95 1014.4
20260905052644 12 104 0.0 0.0 0.00 0.23 0.10 94 1014.5
20260905051629 12 104 0.0 0.0 0.00 0.23 0.10 94 1014.5
20260905050619 12 104 0.0 0.0 0.00 0.23 0.10 93 1014.4
20260905045606 12 104 0.0 0.0 0.00 0.23 0.10 92 1014.3
20260905044547 12 104 0.0 0.0 0.00 0.23 0.10 91 1014.4
20260905043541 12 104 0.0 0.0 0.00 0.23 0.10 91 1014.6
20260905042517 12 104 0.0 0.0 0.00 0.23 0.10 90 1014.5
20260905041511 13 104 0.0 0.0 0.00 0.23 0.10 90 1014.5
20260905040501 13 102 0.0 0.0 0.00 0.23 0.10 89 1014.5
20260905035448 13 103 0.0 0.0 0.00 0.23 0.10 89 1014.3
20260905034419 13 103 0.0 0.0 0.00 0.23 0.10 89 1014.2
20260905033410 13 102 0.0 0.0 0.00 0.23 0.10 88 1014.2
20260905032400 13 103 0.0 0.0 0.00 0.23 0.10 87 1014.1
20260905031346 13 104 0.0 0.0 0.00 0.23 0.10 85 1014.1
20260905030339 13 104 0.0 0.0 0.00 0.23 0.10 84 1013.8
20260905025332 14 104 0.0 0.0 0.00 0.23 0.10 83 1014.0
20260905024304 14 101 0.0 0.0 0.00 0.23 0.10 84 1013.7
20260905023302 14 100 0.0 0.0 0.00 0.23 0.10 82 1013.5
20260905022248 15 101 0.0 0.0 0.00 0.23 0.10 82 1013.5
20260905021237 15 99 0.0 0.0 0.00 0.23 0.10 79 1013.7
20260905020229 15 109 0.0 0.0 0.00 0.23 0.10 78 1013.6
20260905015222 15 107 0.0 0.0 0.00 0.23 0.10 78 1013.7
20260905014204 16 106 0.0 0.0 0.00 0.33 0.10 76 1013.6
20260905013159 16 107 0.0 0.0 0.00 0.43 0.10 75 1013.5
20260905012149 16 106 0.0 0.0 0.00 0.51 0.10 74 1013.5
20260905011128 16 107 0.0 0.0 0.00 0.61 0.10 72 1013.0
20260905010055 16 101 0.0 0.0 0.00 0.79 0.10 72 1012.9
20260905005045 16 104 0.0 0.0 0.00 0.97 0.10 70 1012.9
20260905004015 17 104 0.0 0.0 0.00 1.47 0.10 70 1012.9
20260905002943 17 98 0.0 0.0 0.00 2.26 0.10 69 1012.7
20260905001906 18 102 0.0 0.0 0.00 2.41 0.10 64 1012.9
20260905000900 18 105 0.0 0.0 0.00 2.57 0.10 62 1013.0
20260904235844 18 126 0.0 3.2 0.00 2.57 0.10 61 1013.0
20260904234821 19 106 0.0 0.0 0.00 2.57 0.10 62 1012.8
20260904233745 20 112 0.0 0.0 0.00 2.57 0.10 62 1012.9
20260904232733 20 106 0.0 0.0 0.03 2.57 0.10 63 1012.7
20260904231727 22 103 0.0 0.0 0.03 2.57 0.10 55 1012.8
20260904230721 21 105 0.0 0.0 0.03 2.57 0.10 57 1012.8
20260904225641 20 101 0.0 0.0 0.03 2.57 0.10 59 1012.4
20260904224614 20 109 0.0 0.0 0.03 2.57 0.10 66 1012.5
20260904223554 17 108 0.0 0.0 0.03 2.57 0.10 77 1012.3
20260904222553 17 108 0.0 0.0 0.00 2.54 0.08 78 1012.3
20260904221541 18 138 0.0 0.0 0.00 2.54 0.08 70 1012.4
20260904220530 18 107 0.0 0.0 0.00 2.54 0.08 67 1012.2
20260904215502 18 106 0.0 0.0 0.00 2.54 0.08 66 1012.1
20260904214439 18 101 0.0 0.0 0.00 2.54 0.08 69 1012.0